Time,TemperatureF,DewpointF,PressureIn,WindDirection,WindDirectionDegrees,WindSpeedMPH,WindSpeedGustMPH,Humidity,HourlyPrecipIn,Conditions,Clouds,dailyrainin,SolarRadiationWatts/m^2,SoftwareType,DateUTC
2014-04-17 00:01:00,73.0,71.2,30.06,East,87,2.0,9.0,94,0.00,,,0.26,0.0,meteohub,2014-04-17 04:01:00,
2014-04-17 00:02:00,73.0,71.2,30.06,ENE,66,8.0,9.0,94,0.00,,,0.26,0.0,meteohub,2014-04-17 04:02:00,
2014-04-17 00:07:00,73.2,71.1,30.06,ENE,57,3.0,9.0,93,0.00,,,0.00,0.0,meteohub,2014-04-17 04:07:00,
2014-04-17 00:12:00,73.4,71.2,30.06,East,84,8.0,10.0,93,0.00,,,0.00,0.0,meteohub,2014-04-17 04:12:00,
2014-04-17 00:17:00,73.6,71.4,30.06,East,84,1.0,13.0,93,0.00,,,0.00,0.0,meteohub,2014-04-17 04:17:00,
2014-04-17 00:22:00,73.8,71.2,30.06,East,89,3.0,13.0,92,0.00,,,0.00,0.0,meteohub,2014-04-17 04:22:00,
2014-04-17 00:27:00,73.9,71.1,30.06,ENE,63,3.0,13.0,91,0.00,,,0.00,0.0,meteohub,2014-04-17 04:27:00,
2014-04-17 00:32:00,73.9,71.1,30.06,NE,40,3.0,10.0,91,0.00,,,0.00,0.0,meteohub,2014-04-17 04:32:00,
2014-04-17 00:37:00,74.1,71.2,30.06,ENE,64,8.0,10.0,91,0.00,,,0.00,0.0,meteohub,2014-04-17 04:37:00,
2014-04-17 00:42:00,74.1,71.2,30.06,ENE,70,4.0,10.0,91,0.00,,,0.00,0.0,meteohub,2014-04-17 04:42:00,
2014-04-17 00:47:00,74.3,71.4,30.06,East,84,6.0,10.0,91,0.00,,,0.00,0.0,meteohub,2014-04-17 04:47:00,
2014-04-17 00:52:00,74.3,71.4,30.06,East,92,8.0,10.0,91,0.00,,,0.00,0.0,meteohub,2014-04-17 04:52:00,
2014-04-17 00:57:00,74.7,71.6,30.06,NE,36,8.0,10.0,90,0.00,,,0.00,0.0,meteohub,2014-04-17 04:57:00,
2014-04-17 01:02:00,74.7,71.6,30.05,ENE,63,3.0,10.0,90,0.00,,,0.00,0.0,meteohub,2014-04-17 05:02:00,
2014-04-17 01:07:00,74.8,71.8,30.06,ENE,74,1.0,10.0,90,0.00,,,0.00,0.0,meteohub,2014-04-17 05:07:00,
2014-04-17 01:12:00,74.8,71.8,30.05,ENE,63,4.0,10.0,90,0.00,,,0.00,0.0,meteohub,2014-04-17 05:12:00,
2014-04-17 01:18:00,74.8,71.8,30.05,ENE,64,4.0,9.0,90,0.00,,,0.00,0.0,meteohub,2014-04-17 05:18:00,
2014-04-17 01:23:00,74.8,71.8,30.05,ENE,65,3.0,12.0,90,0.00,,,0.00,0.0,meteohub,2014-04-17 05:23:00,
2014-04-17 01:28:00,74.8,71.8,30.05,East,90,5.0,12.0,90,0.00,,,0.00,0.0,meteohub,2014-04-17 05:28:00,
2014-04-17 01:33:00,74.8,71.8,30.05,ENE,71,5.0,12.0,90,0.00,,,0.00,0.0,meteohub,2014-04-17 05:33:00,